When you browse on this site, cookies collect data to enhance your experience and personalize the content and advertising you see.
Visit our Privacy Policy to learn more. By continuing to use the site, you agree to this use of cookies and data.
  • In Hungary
  • List of Countries
  • For 7 days
  • Water Temperature
  • Satellite Maps
  • Weather Map
  • News
  • Weather Widgets
  • user-avatar
    Login

    Hourly Weather Komarno

    Today, 18 July, Thursday

    Time Temperature Precipitation Wind Pressure Humidity
    00:00 +12°C° 0 mm 2 mps 735 mmHg 92%
    01:00 +12°C° 0 mm 2 mps 735 mmHg 92%
    02:00 +10°C° 0 mm 2 mps 735 mmHg 93%
    03:00 +10°C° 0 mm 2 mps 735 mmHg 93%
    04:00 +10°C° 0 mm 2 mps 736 mmHg 93%
    05:00 +10°C° 0 mm 2 mps 736 mmHg 93%
    06:00 +12°C° 0 mm 2 mps 736 mmHg 89%
    07:00 +13°C° 0 mm 3 mps 736 mmHg 85%
    08:00 +16°C° 0 mm 3 mps 736 mmHg 81%
    09:00 +17°C° 0 mm 3 mps 736 mmHg 75%
    10:00 +18°C° 0 mm 3 mps 736 mmHg 68%
    11:00 +20°C° 0 mm 3 mps 737 mmHg 62%
    12:00 +20°C° 0 mm 3 mps 737 mmHg 61%
    13:00 +21°C° 0 mm 3 mps 736 mmHg 59%
    14:00 +21°C° 0 mm 3 mps 736 mmHg 58%
    15:00 +21°C° 0 mm 3 mps 736 mmHg 58%
    16:00 +21°C° 0 mm 3 mps 736 mmHg 59%
    17:00 +21°C° 0 mm 2 mps 736 mmHg 59%
    18:00 +20°C° 0 mm 2 mps 736 mmHg 65%
    19:00 +18°C° 0 mm 2 mps 736 mmHg 70%
    20:00 +18°C° 0 mm 1 mps 736 mmHg 76%
    21:00 +16°C° 0 mm 1 mps 737 mmHg 78%
    22:00 +14°C° 0 mm 0 mps 737 mmHg 80%
    23:00 +13°C° 0 mm 0 mps 737 mmHg 82%

    Tomorrow, 19 July, Friday

    Time Temperature Precipitation Wind Pressure Humidity
    00:00 +13°C° 0 mm 0 mps 737 mmHg 83%
    01:00 +12°C° 0 mm 0 mps 737 mmHg 84%
    02:00 +12°C° 0 mm 0 mps 738 mmHg 85%
    03:00 +12°C° 0 mm 0 mps 738 mmHg 86%
    04:00 +12°C° 0 mm 0 mps 738 mmHg 87%
    05:00 +12°C° 0 mm 0 mps 738 mmHg 87%
    06:00 +14°C° 0 mm 1 mps 738 mmHg 83%
    07:00 +16°C° 0 mm 1 mps 738 mmHg 78%
    08:00 +19°C° 0 mm 1 mps 739 mmHg 74%
    09:00 +21°C° 0 mm 1 mps 739 mmHg 69%
    10:00 +22°C° 0 mm 1 mps 739 mmHg 65%
    11:00 +24°C° 0 mm 1 mps 739 mmHg 60%
    12:00 +24°C° 0 mm 1 mps 739 mmHg 58%
    13:00 +24°C° 0 mm 1 mps 738 mmHg 55%
    14:00 +25°C° 0 mm 2 mps 738 mmHg 53%
    15:00 +25°C° 0.1 mm 2 mps 738 mmHg 54%
    16:00 +25°C° 0.1 mm 1 mps 738 mmHg 56%
    17:00 +25°C° 0.1 mm 1 mps 738 mmHg 57%
    18:00 +23°C° 0.1 mm 1 mps 738 mmHg 62%
    19:00 +21°C° 0.1 mm 2 mps 738 mmHg 68%
    20:00 +19°C° 0.1 mm 2 mps 738 mmHg 74%
    21:00 +18°C° 0 mm 2 mps 739 mmHg 76%
    22:00 +17°C° 0 mm 2 mps 739 mmHg 78%
    23:00 +16°C° 0 mm 2 mps 739 mmHg 81%

    Day after tomorrow, 20 July, Saturday

    Time Temperature Precipitation Wind Pressure Humidity
    00:00 +16°C° 0 mm 2 mps 739 mmHg 83%
    01:00 +16°C° 0 mm 2 mps 739 mmHg 85%
    02:00 +15°C° 0 mm 2 mps 739 mmHg 86%
    03:00 +15°C° 0 mm 2 mps 739 mmHg 88%
    04:00 +15°C° 0 mm 1 mps 740 mmHg 89%
    05:00 +15°C° 0 mm 1 mps 740 mmHg 90%
    06:00 +16°C° 0.1 mm 1 mps 740 mmHg 88%
    07:00 +18°C° 0.1 mm 1 mps 740 mmHg 86%
    08:00 +19°C° 0.1 mm 2 mps 740 mmHg 84%
    09:00 +20°C° 0.1 mm 2 mps 740 mmHg 81%
    10:00 +21°C° 0.1 mm 2 mps 740 mmHg 77%
    11:00 +23°C° 0.1 mm 2 mps 741 mmHg 73%
    12:00 +24°C° 0.4 mm 2 mps 741 mmHg 67%
    13:00 +26°C° 0.4 mm 1 mps 741 mmHg 61%
    14:00 +27°C° 0.4 mm 1 mps 741 mmHg 55%
    15:00 +27°C° 0.2 mm 1 mps 740 mmHg 57%
    16:00 +27°C° 0.2 mm 1 mps 740 mmHg 59%
    17:00 +27°C° 0.2 mm 1 mps 740 mmHg 61%
    18:00 +25°C° 0.3 mm 1 mps 740 mmHg 68%
    19:00 +23°C° 0.3 mm 1 mps 740 mmHg 75%
    20:00 +22°C° 0.3 mm 1 mps 740 mmHg 81%
    21:00 +21°C° 0 mm 1 mps 741 mmHg 84%
    22:00 +19°C° 0 mm 2 mps 741 mmHg 86%
    23:00 +18°C° 0 mm 2 mps 741 mmHg 88%

    21 July, Sunday

    Time Temperature Precipitation Wind Pressure Humidity
    00:00 +18°C° 0 mm 2 mps 741 mmHg 88%
    01:00 +17°C° 0 mm 2 mps 741 mmHg 89%
    02:00 +18°C° 0 mm 1 mps 741 mmHg 89%
    03:00 +18°C° 0 mm 1 mps 741 mmHg 89%
    04:00 +18°C° 0 mm 1 mps 741 mmHg 90%
    05:00 +16°C° 0 mm 1 mps 741 mmHg 90%
    06:00 +19°C° 0 mm 1 mps 741 mmHg 87%
    07:00 +19°C° 0 mm 2 mps 741 mmHg 83%
    08:00 +21°C° 0 mm 2 mps 741 mmHg 80%
    09:00 +24°C° 0 mm 1 mps 741 mmHg 74%
    10:00 +25°C° 0 mm 1 mps 741 mmHg 69%
    11:00 +27°C° 0 mm 1 mps 741 mmHg 64%
    12:00 +28°C° 0.2 mm 1 mps 741 mmHg 61%
    13:00 +28°C° 0.2 mm 1 mps 741 mmHg 58%
    14:00 +29°C° 0.2 mm 1 mps 741 mmHg 55%
    15:00 +29°C° 0.9 mm 1 mps 740 mmHg 58%
    16:00 +29°C° 0.9 mm 1 mps 740 mmHg 60%
    17:00 +29°C° 0.9 mm 1 mps 740 mmHg 63%
    18:00 +27°C° 0.4 mm 1 mps 740 mmHg 68%
    19:00 +25°C° 0.4 mm 1 mps 740 mmHg 73%
    20:00 +24°C° 0.4 mm 1 mps 740 mmHg 78%
    21:00 +23°C° 0.1 mm 2 mps 740 mmHg 81%
    22:00 +21°C° 0.1 mm 2 mps 740 mmHg 84%
    23:00 +20°C° 0.1 mm 2 mps 740 mmHg 87%

    22 July, Monday

    Time Temperature Precipitation Wind Pressure Humidity
    00:00 +19°C° 0.5 mm 2 mps 740 mmHg 89%
    01:00 +18°C° 0.5 mm 2 mps 740 mmHg 92%
    02:00 +19°C° 0.5 mm 1 mps 740 mmHg 94%
    03:00 +18°C° 0 mm 2 mps 740 mmHg 94%
    04:00 +18°C° 0 mm 2 mps 740 mmHg 94%
    05:00 +17°C° 0 mm 3 mps 740 mmHg 95%
    06:00 +18°C° 0.1 mm 3 mps 740 mmHg 92%
    07:00 +20°C° 0.1 mm 4 mps 741 mmHg 90%
    08:00 +21°C° 0.1 mm 5 mps 741 mmHg 88%
    09:00 +22°C° 0.1 mm 5 mps 741 mmHg 83%
    10:00 +23°C° 0.1 mm 5 mps 741 mmHg 78%
    11:00 +24°C° 0.1 mm 6 mps 741 mmHg 74%
    12:00 +24°C° 0.4 mm 6 mps 741 mmHg 73%
    13:00 +24°C° 0.4 mm 6 mps 741 mmHg 73%
    14:00 +24°C° 0.4 mm 6 mps 741 mmHg 73%
    15:00 +24°C° 0.2 mm 6 mps 741 mmHg 72%
    16:00 +25°C° 0.2 mm 5 mps 741 mmHg 71%
    17:00 +25°C° 0.2 mm 5 mps 741 mmHg 70%
    18:00 +23°C° 0.1 mm 4 mps 741 mmHg 74%
    19:00 +22°C° 0.1 mm 3 mps 741 mmHg 78%
    20:00 +20°C° 0.1 mm 2 mps 741 mmHg 83%
    21:00 +19°C° 0 mm 2 mps 741 mmHg 85%
    22:00 +19°C° 0 mm 2 mps 741 mmHg 87%
    23:00 +18°C° 0 mm 2 mps 741 mmHg 89%

    23 July, Tuesday

    Time Temperature Precipitation Wind Pressure Humidity
    00:00 +17°C° 0 mm 2 mps 741 mmHg 91%
    01:00 +17°C° 0 mm 3 mps 741 mmHg 92%
    02:00 +17°C° 0 mm 3 mps 740 mmHg 94%
    03:00 +16°C° 0 mm 3 mps 740 mmHg 95%
    04:00 +16°C° 0 mm 3 mps 740 mmHg 96%
    05:00 +14°C° 0 mm 3 mps 740 mmHg 97%
    06:00 +16°C° 0.1 mm 3 mps 740 mmHg 95%
    07:00 +17°C° 0.1 mm 4 mps 740 mmHg 93%
    08:00 +18°C° 0.1 mm 4 mps 740 mmHg 91%
    09:00 +18°C° 0 mm 4 mps 740 mmHg 88%
    10:00 +19°C° 0 mm 4 mps 740 mmHg 86%
    11:00 +19°C° 0 mm 4 mps 740 mmHg 84%
    12:00 +20°C° 0 mm 4 mps 740 mmHg 82%
    13:00 +20°C° 0 mm 4 mps 740 mmHg 80%
    14:00 +21°C° 0 mm 4 mps 740 mmHg 78%
    15:00 +21°C° 0 mm 3 mps 740 mmHg 77%
    16:00 +21°C° 0 mm 3 mps 740 mmHg 76%
    17:00 +21°C° 0 mm 2 mps 739 mmHg 75%
    18:00 +20°C° 0 mm 2 mps 739 mmHg 79%
    19:00 +19°C° 0 mm 2 mps 739 mmHg 82%
    20:00 +18°C° 0 mm 2 mps 739 mmHg 86%
    21:00 +18°C° 0 mm 1 mps 739 mmHg 88%
    22:00 +16°C° 0 mm 1 mps 739 mmHg 90%
    23:00 +15°C° 0 mm 1 mps 739 mmHg 92%
    Show more